Location: Palomar Mountain Lodge
(33.3110°N, 116.8495°W)
Time: 01:20:23
(UTC-07:00)

Cosmos 540 Rocket - Pass Details

Date: 12 July 2018
Orbit: 740 x 754 km, 74.1° (Epoch: 19 September)

Event Time Altitude Azimuth Distance (km) Brightness Sun altitude
Rises 22:56:00 0° 348° (NNW) 3,177 7.8 -28.2°
Reaches altitude 10° 22:58:25 10° 353° (N) 2,250 6.7 -28.4°
Enters shadow 23:02:26 47° 32° (NNE) 977 4.1 -28.9°
